Weather History for Lake Charles Regional, LA

Change the Weather History Date:

Wednesday, May 16, 2012

  Actual Average Record
Temperature  
Mean Temperature 76 °F 76 °F  
Max Temperature 86 °F 85 °F 92 °F (1933)
Min Temperature 66 °F 67 °F 46 °F (1907)
Degree Days  
Heating Degree Days 0 0  
Month to date heating degree days 0 0  
Since 1 July heating degree days 954 1489  
Cooling Degree Days 11 11  
Month to date cooling degree days 177 143  
Year to date cooling degree days 671 351  
Growing Degree Days 26 (Base 50)    
Moisture  
Dew Point 63 °F    
Average Humidity 71    
Maximum Humidity 100    
Minimum Humidity 42    
Precipitation  
Precipitation 0.04 in 0.17 in 15.67 in (1980)
Month to date precipitation 4.65 2.44  
Year to date precipitation 31.74 18.12  
Snow  
Snow 0.00 in 0.00 in 0.00 in ()
Month to date snowfall 0.0 0.0  
Since 1 July snowfall 0.0 0.1  
Snow Depth 0.00 in    
Sea Level Pressure  
Sea Level Pressure 30.02 in    
Wind  
Wind Speed 6 mph (North)    
Max Wind Speed 22 mph    
Max Gust Speed 29 mph    
Visibility 9 miles    
Events Rain    
T = Trace of Precipitation, MM = Missing Value Source: NWS Daily Summary

Daily Weather History Graph

Daily Weather History Graph

Search for Another Location

Airport:

Trip Planner

Search our weather history database for the weather conditions in past years. The results will help you decide how hot, cold, wet, or windy it might be!

Date:

Astronomy

May. 16, 2012 Rise Set
Actual Time 6:18 AM CDT 8:00 PM CDT
Civil Twilight 5:52 AM CDT 8:26 PM CDT
Nautical Twilight 5:20 AM CDT 8:58 PM CDT
Astronomical Twilight 4:47 AM CDT 9:31 PM CDT
Moon 3:33 AM CDT (5/16) 4:29 PM CDT (5/16)
Length of Visible Light 14h 34m
Length of Day
13h 42m
Waning Crescent, 16% of the Moon is Illuminated
May 16
Waning Crescent
May 20
New
May 28
First Quarter
Jun 4
Full
Jun 11
Last Quarter

Hourly Weather History & Observations

Time (CDT) Temp. Heat Index Dew Point Humidity Pressure Visibility Wind Dir Wind Speed Gust Speed Precip Events Conditions
12:53 AM 69.1 °F - 61.0 °F 75% 30.04 in 9.0 mi North 5.8 mph - N/A   Overcast
1:53 AM 68.0 °F - 62.1 °F 81% 30.03 in 9.0 mi NNW 4.6 mph - N/A   Overcast
2:53 AM 66.9 °F - 62.1 °F 84% 30.02 in 8.0 mi WNW 5.8 mph - N/A   Mostly Cloudy
3:53 AM 68.0 °F - 61.0 °F 78% 30.04 in 10.0 mi NW 11.5 mph - N/A   Overcast
4:53 AM 66.0 °F - 62.1 °F 87% 30.04 in 7.0 mi NW 8.1 mph - 0.00 in Rain Light Rain
5:53 AM 66.0 °F - 62.1 °F 87% 30.04 in 10.0 mi North 5.8 mph - 0.00 in Rain Light Rain
6:53 AM 66.9 °F - 62.1 °F 84% 30.05 in 9.0 mi NNE 4.6 mph - 0.00 in   Scattered Clouds
7:53 AM 71.1 °F - 62.1 °F 73% 30.06 in 10.0 mi North 6.9 mph - N/A   Mostly Cloudy
8:53 AM 73.9 °F - 61.0 °F 64% 30.06 in 10.0 mi North 11.5 mph - N/A   Clear
9:53 AM 77.0 °F - 60.1 °F 56% 30.06 in 10.0 mi NNE 12.7 mph - N/A   Clear
10:53 AM 79.0 °F - 62.1 °F 56% 30.06 in 10.0 mi NNE 12.7 mph - N/A   Clear
11:53 AM 82.0 °F 83.0 °F 62.1 °F 51% 30.06 in 9.0 mi NNE 4.6 mph 18.4 mph N/A   Clear
12:53 PM 82.9 °F 83.7 °F 62.1 °F 49% 30.04 in 10.0 mi East 6.9 mph - N/A   Clear
1:53 PM 84.0 °F 84.5 °F 62.1 °F 47% 30.02 in 10.0 mi ENE 8.1 mph - N/A   Scattered Clouds
2:53 PM 84.9 °F 85.0 °F 61.0 °F 44% 29.99 in 10.0 mi ENE 4.6 mph - N/A   Clear
3:53 PM 86.0 °F 86.1 °F 61.0 °F 43% 29.96 in 10.0 mi NE 6.9 mph - N/A   Clear
4:48 PM 75.2 °F - 66.2 °F 73% 29.94 in 2.5 mi West 6.9 mph - 0.04 in Rain Light Rain
4:53 PM 75.0 °F - 66.0 °F 73% 29.97 in 10.0 mi WSW 9.2 mph - 0.04 in Rain Light Rain
5:53 PM 79.0 °F - 66.0 °F 64% 29.96 in 8.0 mi West 3.5 mph - 0.00 in   Partly Cloudy
6:53 PM 77.0 °F - 63.0 °F 62% 29.98 in 10.0 mi SE 8.1 mph - N/A   Scattered Clouds
7:53 PM 73.0 °F - 64.9 °F 76% 30.00 in 9.0 mi SSW 3.5 mph - 0.00 in   Partly Cloudy
8:53 PM 70.0 °F - 64.9 °F 84% 30.00 in 9.0 mi WNW 4.6 mph - N/A   Clear
9:53 PM 71.1 °F - 64.9 °F 81% 30.03 in 9.0 mi SE 6.9 mph - N/A   Mostly Cloudy
10:53 PM 69.1 °F - 66.0 °F 90% 30.03 in 8.0 mi Calm Calm - N/A   Clear
11:53 PM 66.9 °F - 66.0 °F 97% 30.03 in 5.0 mi Calm Calm - N/A   Clear